OpenBCM V1.08-5-g2f4a (Linux)

Packet Radio Mailbox

IZ3LSV

[San Dona' di P. JN]

 Login: GUEST





  
I0OJJ  > KEPS     29.03.25 02:25l 328 Lines 15596 Bytes #135 (0) @ AMSAT
BID : ORB25088.1
Read: GUEST
Subj: 2Line Orbital Elements 25088.AMSAT
Path: IZ3LSV<I0OJJ
Sent: 250329/0025z @:I0OJJ.ITA.EU [Rome] obcm1.08-6-g5b69
From: I0OJJ @ I0OJJ.ITA.EU (Gustavo)
To:   KEPS @ AMSAT
X-Info: This message was generated automatically


QST de W1STR

AMSAT Orbital Elements for Amateur Satellites in TLE Format
From Orbital Analysis Office
New England Sci-Tech STEM Education Center
Natick, MA March 29, 2025
To all radio amateurs


These element sets describe the orbits of various satellites 
in use by the amateur radio community. For details see:
www.amsat.org/keplerian-elements-formats/

A daily update of element sets is available at:
www.amsat.org/tle/daily-bulletin.txt
or without bulletin text:
www.amsat.org/tle/dailytle.txt


AO-07
1 07530U 74089B   25087.49106465 -.00000024  00000-0  14083-3 0  9996
2 07530 101.9955  90.9726 0011878 261.3981 251.6976 12.53687818304669
UO-11
1 14781U 84021B   25087.90209328  .00003799  00000-0  40901-3 0  9996
2 14781  97.7466  55.7569 0006918 205.8114 154.2759 14.89037809211820
AO-27
1 22825U 93061C   25087.41903798  .00000387  00000-0  16504-3 0  9998
2 22825  98.7450 148.5840 0007766 334.4162  25.6635 14.30762368643250
FO-29
1 24278U 96046B   25087.33434843  .00000003  00000-0  37843-4 0  9994
2 24278  98.5833 350.8457 0350090 172.1769 188.5034 13.53241809412869
NOAA-15
1 25338U 98030A   25087.81734944  .00000473  00000-0  21247-3 0  9996
2 25338  98.5433 114.6755 0009809 206.2614 153.8071 14.26926176398022
GO-32
1 25397U 98043D   25087.42192991  .00000326  00000-0  16142-3 0  9997
2 25397  98.9645  65.0391 0002320  72.9298 287.2134 14.24284186387877
ISS
1 25544U 98067A   25087.84802340  .00032180  00000-0  56453-3 0  9991
2 25544  51.6366 344.9329 0003587  59.4238 300.7105 15.50246788502703
NO-44
1 26931U 01043C   25087.36545390  .00000549  00000-0  23674-3 0  9999
2 26931  67.0514 317.1322 0005568 268.2358  91.8106 14.31676189226622
SO-50
1 27607U 02058C   25087.31202709  .00004710  00000-0  60865-3 0  9993
2 27607  64.5536  66.6461 0047806 351.7304   8.3008 14.81268302198372
CO-55
1 27844U 03031E   25087.88375976  .00001006  00000-0  45776-3 0  9996
2 27844  98.6792  97.0894 0010445  44.4195 315.7819 14.23907126128321
CO-57
1 27848U 03031J   25087.44696568  .00000866  00000-0  40170-3 0  9991
2 27848  98.6820  96.7185 0010594  60.8610 299.3628 14.23253635127968
RS-22
1 27939U 03042A   25087.89894078  .00003234  00000-0  52261-3 0  9995
2 27939  98.3205 255.6308 0010692 236.8392 283.4958 14.72049704150136
NOAA-18
1 28654U 05018A   25087.78796259  .00000480  00000-0  27790-3 0  9994
2 28654  98.8446 168.0786 0013562 340.0470  20.0170 14.13559090 23469
CO-58
1 28895U 05043F   25087.38738561  .00004971  00000-0  82481-3 0  9994
2 28895  98.2374 230.8892 0015024 175.2283 184.9069 14.70583614 36183
CO-65
1 32785U 08021C   25087.88488983  .00011027  00000-0  81651-3 0  9999
2 32785  97.7771  58.5948 0012287  96.0761 264.1864 15.03256714918220
AAUSAT2
1 32788U 08021F   25087.47022113  .00208427  00000-0  23852-2 0  9996
2 32788  97.6044  81.7055 0005671 133.5755 226.5974 15.61433907921886
CO-66
1 32791U 08021J   25087.91251461  .00024930  00000-0  12933-2 0  9992
2 32791  97.7230  66.4777 0006843  73.2606 286.9377 15.16114013919558
RS-30
1 32953U 08025A   25087.89020467  .00000042  00000-0  23058-3 0  9992
2 32953  82.4975 272.3941 0019197 202.0263 157.9993 12.43161039764504
NOAA-19
1 33591U 09005A   25087.85330252  .00000438  00000-0  25769-3 0  9992
2 33591  99.0044 152.1300 0013477 205.2749 154.7764 14.13325040831832
SRMSAT
1 37841U 11058D   25087.77174446  .00000674  00000-0  22259-3 0  9990
2 37841  19.9708 235.1351 0011792 344.7038  44.5168 14.11398109695036
ZACUBE-1
1 39417U 13066B   25087.42341016  .00011881  00000-0  10543-2 0  9997
2 39417  97.7724  44.9064 0042897 297.8742  61.8137 14.95620177613972
Delfi-N3xt
1 39428U 13066N   25087.25072765  .00013917  00000-0  14604-2 0  9996
2 39428  97.8370   5.7940 0085105 241.3406 117.9233 14.86946123608358
GOMX-1
1 39430U 13066Q   25087.86842191  .00004629  00000-0  72453-3 0  9991
2 39430  97.6939 310.9723 0134765  65.3904 296.1273 14.67220604604745
LO-74
1 39440U 13066AA  25087.59146989  .00010394  00000-0  10680-2 0  9993
2 39440  97.8438  32.7273 0065261  61.7669 299.0116 14.88952043611774
AO-73
1 39444U 13066AE  25087.84942204  .00016076  00000-0  12491-2 0  9994
2 39444  97.7643  49.6216 0039196 272.4338  87.2399 15.00779689613265
DTUSAT-2
1 40030U 14033W   25087.88136370  .00014672  00000-0  98891-3 0  9994
2 40030  98.0482  56.2873 0007676 317.1446  42.9181 15.06755143585957
EO-80
1 40032U 14033Y   25087.44040291  .00014509  00000-0  97620-3 0  9992
2 40032  98.0377  55.5823 0006497 240.3432 119.7147 15.06829010585355
LILACSAT-2
1 40908U 15049K   25087.86704304  .00021198  00000-0  59280-3 0  9992
2 40908  97.5125 106.5418 0011533  68.1904 292.0565 15.36631204527057
IO-86
1 40931U 15052B   25038.81889873  .00001817  00000-0  15548-3 0  9993
2 40931   6.0001 108.1159 0012838 187.7041 172.2889 14.78568669506492
Horyu-4
1 41340U 16012D   25087.84711957  .00037656  00000-0  11511-2 0  9994
2 41340  30.9969 259.6840 0008750  26.3057 333.8031 15.32621841501603
Lapan A3
1 41603U 16040E   25087.88287471  .00006513  00000-0  23253-3 0  9995
2 41603  97.1391  95.3689 0011864 159.3709 200.8013 15.29117237486673
CAS-2T
1 41847U 16066G   25087.89403950  .00003041  00000-0  43927-3 0  9999
2 41847  98.4247 162.9825 0347691  38.5451 324.0023 14.43247663440539
CAS-4B
1 42759U 17034B   25087.85731601  .00072781  00000-0  11192-2 0  9996
2 42759  43.0107  32.2081 0016781 147.6060 212.5834 15.53163574431257
CAS-4A
1 42761U 17034D   25087.87161388  .00076481  00000-0  11454-2 0  9992
2 42761  43.0144  29.8764 0018246 152.8679 207.3139 15.53840708431276
TechnoSat
1 42829U 17042E   25087.73457536  .00007599  00000-0  59830-3 0  9999
2 42829  97.3906 259.9365 0013565 162.3357 197.8342 15.00998315419792
AO-91
1 43017U 17073E   25087.21066887  .00015648  00000-0  82031-3 0  9994
2 43017  97.5358 319.8694 0178912  56.5527 305.2662 15.02996628398183
S-Net D
1 43186U 18014G   25087.40648509  .00011387  00000-0  68923-3 0  9995
2 43186  97.5702 351.0863 0011008 112.0390 248.2010 15.10732680391324
S-Net B
1 43187U 18014H   25087.27850896  .00011360  00000-0  68785-3 0  9992
2 43187  97.5702 350.9280 0011788 108.9372 251.3137 15.10710737391307
S-Net A
1 43188U 18014J   25087.27465142  .00011337  00000-0  68602-3 0  9991
2 43188  97.5710 351.0653 0011716 108.6647 251.5855 15.10734160391301
S-Net C
1 43189U 18014K   25087.28075421  .00011187  00000-0  67725-3 0  9998
2 43189  97.5724 351.0730 0013290 103.5311 256.7400 15.10706291389858
Ten-Koh
1 43677U 18084G   25087.43472164  .00006164  00000-0  49987-3 0  9998
2 43677  98.0959 256.7748 0010408 153.3683 206.8076 15.00021078349278
PO-101
1 43678U 18084H   25087.85277253  .00005110  00000-0  44001-3 0  9999
2 43678  98.0984 261.2410 0008451 162.7662 197.3847 14.97803283349495
QO-100
1 43700U 18090A   25087.44767113  .00000141  00000-0  00000-0 0  9993
2 43700   0.0211 155.2801 0001434 244.5622 333.2195  1.00271805 23206
MinXSS-2
1 43758U 18099A   25087.13771634  .00029284  00000-0  12568-2 0  9997
2 43758  97.5099 153.0609 0012918  60.0442 300.2075 15.22592586345788
AO-95
1 43770U 18099N   25087.13995495  .00017349  00000-0  92083-3 0  9994
2 43770  97.5013 146.0945 0012620 108.5409 251.7196 15.15330921345424
RANGE-A
1 43773U 18099R   25087.37750678  .00009060  00000-0  58990-3 0  9995
2 43773  97.4579 137.9103 0013237  86.0406 274.2335 15.08094496345184
MOVE-II
1 43780U 18099Y   25087.14812811  .00121741  00000-0  20645-2 0  9992
2 43780  97.4740 158.6557 0001385  91.3385 268.8025 15.51069427346338
SNUSat 2
1 43782U 18099AA  25087.10872241  .00018808  00000-0  10648-2 0  9994
2 43782  97.4697 143.3961 0013177  53.9687 306.2763 15.13005019345387
SnugLite
1 43784U 18099AC  25087.11937476  .00017380  00000-0  91616-3 0  9998
2 43784  97.4508 142.8348 0004494  68.8512 291.3201 15.15633309345503
ITASat 1
1 43786U 18099AE  25087.43524456  .00013562  00000-0  79944-3 0  9993
2 43786  97.4658 143.4288 0016268  99.9910 260.3157 15.11584264345406
EAGLET 1
1 43790U 18099AJ  25087.39369064  .00008335  00000-0  54219-3 0  9995
2 43790  97.4854 143.5655 0013835  83.4031 276.8772 15.08146360345038
ESEO
1 43792U 18099AL  25087.40815218  .00004657  00000-0  35716-3 0  9990
2 43792  97.4594 137.7922 0012591  57.4336 302.8103 15.02214528344831
CSIM
1 43793U 18099AM  25087.57666814  .00115246  00000-0  19129-2 0  9991
2 43793  97.4928 161.2079 0003513  13.1756 346.9587 15.51694069346245
JO-97
1 43803U 18099AX  25087.10800690  .00027695  00000-0  13412-2 0  9993
2 43803  97.4755 146.9206 0008297  51.6551 308.5428 15.18492074345614
Suomi 100
1 43804U 18099AY  25087.40814472  .00016934  00000-0  87094-3 0  9992
2 43804  97.4821 146.7022 0013444  49.1270 311.1125 15.16440119345607
ISAT
1 43879U 18111D   25087.29142024  .00033319  00000-0  12908-2 0  9990
2 43879  97.6011   0.2438 0012425  95.1204 265.1452 15.26016846342507
UWE-4
1 43880U 18111E   25087.22823545  .00027740  00000-0  11817-2 0  9998
2 43880  97.5951 359.1281 0015216 104.8316 255.4607 15.22828436342456
Sparrow
1 43881U 18111F   25087.32757531  .00033596  00000-0  12628-2 0  9998
2 43881  97.6141   2.8930 0009788 124.1513 236.0655 15.27045908342596
Prox-1
1 44339U 19036A   25087.34907335  .00017527  00000-0  23483-2 0  9992
2 44339  23.9968 182.1402 0006471 324.2434  35.7629 14.77800120307169
SONATE
1 44400U 19038Q   25087.78681712  .00117424  00000-0  10589-2 0  9999
2 44400  97.7034 106.4140 0010551 146.9138 213.2784 15.67725926318081
Taurus 1
1 44530U 19059C   25087.86247574  .00014727  00000-0  27933-2 0  9992
2 44530  98.5964 223.9135 0009993 252.7413 107.2695 14.64311424293293
